This is the latest recevied weather packets stored in our database for station/object AE0NK. If no packets are shown the sender has not sent any weather packets the latest 10 day(s).
| Time | Temp. | Humidity | Pressure | Rain* | Wind** | Luminosity | Snow |
|---|---|---|---|---|---|---|---|
| 1777665501 | 11.67° C | 59% | 1017.3 hPa | 0 mm | - | 872 W/m² | - |
| 1777665199 | 11.11° C | 57% | 1017.3 hPa | 0 mm | - | 244 W/m² | - |
| 1777664897 | 11.11° C | 56% | 1017.3 hPa | 0 mm | - | 156 W/m² | - |
| 1777664594 | 11.11° C | 55% | 1017.4 hPa | 0 mm | - | 60 W/m² | - |
| 1777664293 | 11.11° C | 55% | 1017.3 hPa | 0 mm | - | 62 W/m² | - |
| 1777663991 | 11.11° C | 53% | 1017.2 hPa | 0 mm | - | 90 W/m² | - |
| 1777663709 | 11.67° C | 53% | 1017.2 hPa | 0 mm | - | 130 W/m² | - |
| 1777663408 | 11.67° C | 53% | 1017.2 hPa | 0 mm | - | 155 W/m² | - |
| 1777663106 | 11.11° C | 52% | 1017.2 hPa | 0 mm | - | 190 W/m² | - |
| 1777662805 | 11.11° C | 55% | 1017.1 hPa | 0 mm | - | 220 W/m² | - |
| 1777662504 | 11.11° C | 54% | 1017.1 hPa | 0 mm | - | 207 W/m² | - |
| 1777662200 | 11.11° C | 54% | 1017.1 hPa | 0 mm | - | 163 W/m² | - |
| 1777661893 | 11.11° C | 54% | 1017.1 hPa | 0 mm | - | 130 W/m² | - |
| 1777661591 | 11.11° C | 55% | 1017.2 hPa | 0 mm | - | 98 W/m² | - |
| 1777661310 | 11.11° C | 53% | 1017.1 hPa | 0 mm | - | 90 W/m² | - |
| 1777661008 | 11.11° C | 53% | 1017.1 hPa | 0 mm | - | 91 W/m² | - |
| 1777660705 | 11.11° C | 54% | 1017.2 hPa | 0 mm | - | 111 W/m² | - |
| 1777660402 | 11.11° C | 54% | 1017 hPa | 0 mm | - | 134 W/m² | - |
| 1777660100 | 11.11° C | 52% | 1017 hPa | 0 mm | - | 181 W/m² | - |
| 1777659799 | 11.11° C | 53% | 1017 hPa | 0 mm | - | 179 W/m² | - |
| 1777659497 | 11.11° C | 51% | 1016.9 hPa | 0 mm | - | 158 W/m² | - |
| 1777659195 | 11.11° C | 51% | 1017.1 hPa | 0 mm | - | 153 W/m² | - |
| 1777658895 | 11.11° C | 51% | 1017 hPa | 0 mm | - | 162 W/m² | - |
| 1777658611 | 11.11° C | 49% | 1017.1 hPa | 0 mm | - | 204 W/m² | - |
| 1777658305 | 11.11° C | 50% | 1017.1 hPa | 0 mm | - | 244 W/m² | - |
* Rain latest hour (hover to see other rain measurements)
** Current wind speed in m/s (hover to see current wind gust speed)